Terminal Aerodrome Forecast
Issued by NWS

Home | Current Version | Previous Version | Text Only | Print | Product List | Glossary On
Versions: 1 2 3 4 5 6 7 8 9 10 11 12 13 14
056
FTUS46 KHNX 101720
TAFFAT
TAF
KFAT 101720Z 1018/1118 11003KT P6SM SCT200
     FM102100 30004KT P6SM BKN250
     FM110600 VRB02KT 4SM BR BKN250=

USA.gov is the U.S. government's official web portal to all federal, state and local government web resources and services.